Regional Weather Roundup
Issued by NWS

Home | Current Version | Previous Version | Graphics & Text | Print | Product List | Glossary On
Versions: 1 2 3 4 5 6 7 8 9 10 11 12 13 14 15 16 17 18 19 20 21 22 23 24 25 26 27 28 29 30 31 32 33 34 35 36 37 38 39 40 41 42 43 44 45 46 47 48 49 50
000
ASUS45 KPSR 251710
RWRAZ

ARIZONA REGIONAL HOURLY WEATHER ROUNDUP
NATIONAL WEATHER SERVICE PHOENIX AZ
1000 AM MST FRI JUL 25 2014

NOTE: FAIR INDICATES FEW OR NO CLOUDS BELOW 12,000 FEET WITH NO
SIGNIFICANT WEATHER AND/OR OBSTRUCTIONS TO VISIBILITY.

AZZ001>003-036-251800-
NORTHWEST ARIZONA

CITY           SKY/WX    TMP DP  RH WIND       PRES   REMARKS
BULLHEAD CITY  PTSUNNY   99  63  30 SW7       29.86S HX 100
KINGMAN        PTSUNNY   90  53  28 S8        30.07R
$$

AZZ004>008-015-016-018-251800-
NORTH CENTRAL ARIZONA

CITY           SKY/WX    TMP DP  RH WIND       PRES   REMARKS
GRAND CANYON   MOSUNNY   80  49  33 SW9G18    30.33S
WILLIAMS       SUNNY     79  50  36 SW7       30.40S
PRESCOTT       MOSUNNY   85  52  32 W3        30.21F
FLAGSTAFF      SUNNY     79  48  33 MISG      30.37S
PAYSON         SUNNY     86  55  35 VRB6      30.25S
PAGE           MOSUNNY   91  49  23 NW6       30.12S
$$

AZZ009>014-017-251800-
NORTHEAST ARIZONA

CITY           SKY/WX    TMP DP  RH WIND       PRES   REMARKS
WINSLOW        SUNNY     88  48  25 NE3       30.19F
SAINT JOHNS    SUNNY     85  43  22 VRB5      30.25F
WINDOW ROCK    SUNNY     87  39  18 VRB6      30.33F
SHOW LOW       SUNNY     82  43  24 SW8       30.34S
$$

AZZ023-251800-
GREATER PHOENIX AREA

CITY           SKY/WX    TMP DP  RH WIND       PRES   REMARKS
PHOENIX        SUNNY     99  64  31 VRB7      29.91R HX 101
BUCKEYE          N/A     97  63  32 SE6       29.93R
GLENDALE       SUNNY     99  64  32 E6        29.93R HX 101
LUKE AFB       NOT AVBL
DEER VALLEY    SUNNY     96  63  33 SE6       29.93S
SCOTTSDALE     SUNNY     96  63  33 VRB5      29.95F
MESA-FALCON    SUNNY     97  63  32 S6        29.93F
MESA-GATEWAY   SUNNY     97  61  30 SE6       29.95F
CHANDLER       SUNNY     97  63  32 S7        29.93S
$$

AZZ027-028-251800-
SOUTHWEST MARICOPA COUNTY AND PINAL COUNTY

CITY           SKY/WX    TMP DP  RH WIND       PRES   REMARKS
CASA GRANDE    SUNNY     97  63  32 CALM      29.96S
GILA BEND      SUNNY    100  59  25 VRB5      29.91F HX 100
$$

AZZ503-504-507>509-251800-
SOUTHEAST ARIZONA

CITY           SKY/WX    TMP DP  RH WIND       PRES   REMARKS
TUCSON         SUNNY     92  62  36 E5        30.05F
DAVIS-MONTHAN  SUNNY     90  62  38 NE2       30.03F
RYAN FIELD       N/A     91  64  40 N3        30.03F
NOGALES        CLOUDY    89  62  40 MISG      30.13F
SIERRA VISTA   MOSUNNY   86  57  37 CALM      30.20F
DOUGLAS        CLOUDY    85  62  46 VRB3      30.16S
SAFFORD        SUNNY     90  53  28 VRB5      30.06S
$$

AZZ020-021-025-026-031-251800-
SOUTHWEST ARIZONA

CITY           SKY/WX    TMP DP  RH WIND       PRES   REMARKS
YUMA           MOSUNNY  100  68  35 S20       29.83S HX 105
$$

CAZ031-033-041-043-047-048-061-251800-
SOUTHERN CALIFORNIA

CITY           SKY/WX    TMP DP  RH WIND       PRES   REMARKS
DOWNTOWN L.A.  SUNNY     80  64  58 CALM      29.89S
L.A. AIRPORT   MOSUNNY   76  64  66 SE6       29.90S
SAN DIEGO      CLOUDY    74  64  71 SW3       29.91S
BURBANK        SUNNY     78  60  53 E3        29.91R
ONTARIO        MOSUNNY   80  60  50 S3        29.91S
RIVERSIDE      MOSUNNY   81  60  48 CALM      29.90F
PALM SPRINGS   PTSUNNY   90  58  33 CALM      29.88R
EL CENTRO NAS  MOSUNNY   96  73  47 SE10      29.79S HX 105
IMPERIAL       SUNNY     97  74  47 SE14      29.79S HX 108
BLYTHE         MOSUNNY  100  63  29 S16       29.85R HX 102
NEEDLES        PTSUNNY  101  56  22 SW17      29.87R HX 100
$$

NVZ020-UTZ003-251800-
SOUTHERN NEVADA-UTAH

CITY           SKY/WX    TMP DP  RH WIND       PRES   REMARKS
LAS VEGAS      CLOUDY    97  49  19 S9        29.87S
SALT LAKE CITY PTSUNNY   81  45  28 VRB3      30.05F
$$

NMZ009-TXZ055-251800-
NEW MEXICO-WEST TEXAS

CITY           SKY/WX    TMP DP  RH WIND       PRES   REMARKS
ALBUQUERQUE    MOSUNNY   85  43  22 S8        30.22F
EL PASO        SUNNY     89  51  27 VRB6      30.13F
$$


........................KEY........................
SKY/WX - SKY CONDITION/WEATHER
TMP    - TEMPERATURE IN FAHRENHEIT
DP     - DEW POINT IN FAHRENHEIT
RH     - RELATIVE HUMIDITY IN PERCENT
WIND   - DIRECTION AND SPEED IN MILES PER HOUR (MPH)
VRB    - VARIABLE WIND DIRECTION
PRES   - MEAN SEA LEVEL PRESSURE IN INCHES OF MERCURY
         F - FALLING PRESSURE   R - RISING PRESSURE
         S - STEADY PRESSURE
VSB    - VISIBILITY IN MILES
HX     - HEAT INDEX IN FAHRENHEIT
WCI    - WIND CHILL INDEX IN FAHRENHEIT
TC     - TEMPERATURE IN CELSIUS WHICH IS ALSO KNOWN AS
         TEMPERATURE IN CENTIGRADE
AFB    - AIR FORCE BASE
         LUKE AFB IS LUKE AIR FORCE BASE
         DAVIS-MONTHAN IS DAVIS-MONTHAN AIR FORCE BASE
NAS    - NAVAL AIR STATION
         EL CENTRO NAS IS EL CENTRO NAVAL AIR STATION
N/A    - NOT AVAILABLE



USA.gov is the U.S. government's official web portal to all federal, state and local government web resources and services.